Tracking 28125 objects as of 3-Oct-2023
HD Live streaming from Space Station
objects crossing your sky now

SPACEBEE-156

Track SPACEBEE-156 now!
10-day predictions


NORAD ID: 55099
Int'l Code: 2023-001CU
Perigee: 490.8 km
Apogee: 508.5 km
Inclination: 97.5 °
Period: 94.5 minutes
Semi major axis: 6870 km
RCS: Unknown
Launch date: January 3, 2023
Source: United States (US)
Launch site: AIR FORCE EASTERN TEST RANGE (AFETR)
Your satellite tracking list
Your tracking list is empty




NASA's NSSDC Master Catalog

Two Line Element Set (TLE):
1 55099U 23001CU  23275.41673963  .00031366  00000-0  12741-2 0  9998
2 55099  97.4638 334.8320 0012870 352.5843   7.5202 15.24437787 41412
Source of the keplerian elements: AFSPC